[[{"header":{"parameterUnit":"m.s-1","parameterCategory":1,"la1":30.2991,"la2":30.254,"lo1":-89.0895,"lo2":-89.0444,"dy":0.0017,"dx":0.0017,"nx":28,"ny":28,"refTime":"2024-05-13T03:00:00:Z","depth":0,"parameterNumber":2,"parameterNumberName":"U-component_of_WINDS"},"data":[0,0,0,0,0,0,0,0,0,0,0,0,0,0,0,0,0,0,0,0,0,0,0,0,0,0,0,0,0,0,0,0,0,0,0,0,0,0,0,0,0,0,0,0,0,0,0,0,0,0,0,0,0,0,0,0,0,0,-6.3426,-6.3427,0,-6.348,-6.348,-6.3481,-6.3408,-6.3405,-6.3402,-6.34,-6.345,-6.3454,-6.3458,0,0,0,0,0,0,0,0,0,0,0,0,0,-6.3257,-6.326,-6.3426,-6.3427,-6.3428,-6.348,-6.348,-6.3481,-6.3408,-6.3405,-6.3402,-6.3399,-6.3449,-6.3454,-6.3458,0,0,0,0,0,0,0,0,0,0,0,0,0,-6.3322,-6.3262,-6.3426,-6.3398,-6.3396,-6.3479,-6.348,-6.3481,-6.3409,-6.3405,-6.3401,-6.3397,-6.3448,-6.3453,-6.3459,-6.3572,0,0,-6.3476,-6.3479,0,0,0,0,0,0,0,0,-6.3319,-6.3329,-6.3401,-6.34,-6.3398,-6.3433,-6.3439,-6.3511,-6.341,-6.3404,-6.34,-6.3395,-6.3448,-6.3453,-6.3471,-6.3574,-6.3576,-6.3477,-6.348,-6.3482,-6.3484,0,0,0,0,0,0,0,-6.3314,-6.3326,-6.3447,-6.3402,-6.34,-6.3381,-6.3386,-6.3452,-6.3447,-6.3404,-6.3399,-6.3406,-6.3446,-6.3466,-6.3472,-6.3577,-6.3476,-6.3481,-6.3485,-6.3487,-6.3772,-6.3776,0,0,0,0,0,0,-6.3314,-6.3323,-6.3445,-6.3449,-6.3348,-6.3387,-6.3393,-6.3426,-6.3446,-6.3445,-6.341,-6.3403,-6.3458,-6.3466,-6.3474,-6.3604,-6.3482,-6.3488,-6.3491,-6.3768,-6.3773,-6.3778,0,0,0,0,0,0,-6.331,-6.3325,-6.3443,-6.3384,-6.3398,-6.3394,-6.3432,-6.3429,-6.3449,-6.345,-6.3448,-6.3432,-6.3456,-6.3466,-6.3548,-6.3605,-6.349,-6.3495,-6.3763,-6.377,-6.3776,-6.3868,0,0,0,0,0,0,-6.3306,-6.3325,-6.3368,-6.3386,-6.3401,-6.3518,-6.3435,-6.3433,-6.3459,-6.3451,-6.347,-6.347,-6.3453,-6.354,-6.3553,-6.361,-6.35,-6.3758,-6.3766,-6.3774,-6.3859,-6.3876,-6.3891,0,0,0,0,0,-6.33,-6.3392,-6.3371,-6.3386,-6.3456,-6.3521,-6.353,-6.351,-6.3464,-6.3507,-6.3508,-6.3469,-6.3598,-6.3549,-6.3563,-6.3623,-6.3754,-6.3764,-6.3773,-6.3852,-6.3873,-6.3891,0,0,0,0,0,0,-6.3379,-6.3393,-6.337,-6.3471,-6.3496,-6.3509,-6.3562,-6.3533,-6.357,-6.356,-6.3534,-6.3539,-6.3626,-6.3634,-6.3578,-6.3732,-6.3668,-6.3681,-6.3723,-6.3743,-6.3758,-6.3752,-6.3504,0,0,0,0,0,-6.3409,-6.3462,-6.3471,-6.3559,-6.3573,-6.3566,-6.3593,-6.3577,-6.36,-6.361,-6.3617,-6.364,-6.3685,-6.3715,-6.3758,-6.3862,-6.3863,-6.3911,-6.3927,-6.3939,-6.3949,-6.4002,-6.4022,-6.3809,-6.3809,-6.3809,0,0,-6.3469,-6.3484,-6.3519,-6.3575,-6.3592,-6.3645,-6.3575,-6.3635,-6.3673,-6.3618,-6.3695,-6.3702,-6.3726,-6.3819,-6.3861,-6.3828,-6.4009,-6.3952,-6.3962,-6.3964,-6.4014,-6.4034,-6.4052,-6.3815,-6.3814,-6.3813,0,0,-6.3606,-6.3625,-6.3698,-6.3717,-6.3744,-6.3739,-6.3757,-6.3775,-6.3777,-6.3855,-6.3814,-6.386,-6.394,-6.3958,-6.3977,-6.4123,-6.4087,-6.4138,-6.4218,-6.427,-6.4286,-6.4301,-6.4349,-6.4367,-6.4149,-6.4149,-6.4149,0,-6.3677,-6.3757,-6.3739,-6.3801,-6.3826,-6.3782,-6.3854,-6.3874,-6.3913,-6.393,-6.3895,-6.3993,-6.4006,-6.4101,-6.4137,-6.4156,-6.4173,-6.4133,-6.4286,-6.43,-6.4314,-6.4359,-6.4377,-6.4155,-6.4154,-6.4153,-6.4153,0,-6.3841,-6.3898,-6.3954,-6.3994,-6.4025,-6.4093,-6.4083,-6.4118,-6.4099,-6.4098,-6.4176,-6.4192,-6.4235,-6.4257,-6.4239,-6.435,-6.4328,-6.4291,-6.4224,-6.434,-6.4381,-6.4399,-6.4163,-6.4161,-6.4159,-6.4158,0,0,-6.4025,-6.4055,-6.4076,-6.4092,-6.412,-6.4162,-6.4228,-6.4272,-6.43,-6.433,-6.4381,-6.4451,-6.4415,-6.4438,-6.4422,-6.4469,-6.4578,-6.4424,-6.4424,-6.4448,-6.4696,-6.4721,-6.4742,-6.4557,-6.4561,-6.4563,-6.4693,0,-6.4158,-6.4271,-6.4257,-6.4365,-6.4415,-6.4374,-6.4431,-6.4453,-6.4455,-6.4496,-6.4497,-6.4545,-6.4497,-6.451,-6.4554,-6.4555,-6.4627,-6.4547,-6.4601,-6.4603,-6.4591,-6.4764,-6.4791,-6.4912,-6.4709,-6.4712,-6.4714,0,-6.4327,-6.4363,-6.4476,-6.4495,-6.4516,-6.4567,-6.4605,-6.4647,-6.4671,-6.4668,-6.4695,-6.4671,-6.4734,-6.4672,-6.4757,-6.4703,-6.4725,-6.4729,-6.4734,-6.4733,-6.4662,-6.4764,-6.495,-6.4967,-6.4741,-6.4738,-6.4737,0,-6.4444,-6.4522,-6.4598,-6.4615,-6.464,-6.4676,-6.4688,-6.4709,-6.4736,-6.477,-6.4786,-6.4827,-6.4848,-6.488,-6.4867,-6.4823,-6.4954,-6.489,-6.495,-6.495,-6.4975,-6.4972,-6.5162,-6.4998,-6.4998,-6.4998,-6.4997,0,-6.4591,-6.466,-6.4651,-6.4698,-6.4774,-6.4758,-6.4833,-6.484,-6.4859,-6.4905,-6.4874,-6.4918,-6.4901,-6.4943,-6.4934,-6.5004,-6.5015,-6.5012,-6.5008,-6.5012,-6.5012,-6.5022,-6.5011,-6.5003,-6.5002,-6.5001,-6.5,0,-6.4732,-6.4729,-6.4809,-6.4828,-6.4834,-6.4889,-6.4903,-6.4946,-6.4946,-6.5005,-6.5018,-6.5017,-6.5065,-6.5057,-6.511,-6.5104,-6.519,-6.5178,-6.5182,-6.5177,-6.5235,-6.5228,-6.5434,-6.5459,-6.5284,-6.5286,-6.5287,0,-6.4823,-6.4876,-6.49,-6.4929,-6.4944,-6.4992,-6.5019,-6.5006,-6.5035,-6.5067,-6.5106,-6.5152,-6.5186,-6.5265,-6.5268,-6.5308,-6.5294,-6.5364,-6.5299,-6.5301,-6.5289,-6.5284,-6.5288,-6.5374,-6.5377,-6.5378,-6.538,0,-6.4984,-6.498,-6.5022,-6.5063,-6.5097,-6.5128,-6.5156,-6.5182,-6.5171,-6.5205,-6.5255,-6.5282,-6.5337,-6.5381,-6.5419,-6.543,-6.5402,-6.5401,-6.5416,-6.5418,-6.5416,-6.5413,-6.5211,-6.5395,-6.5393,-6.5392,-6.5391,-6.5391,-6.51,-6.5144,-6.5167,-6.5214,-6.5234,-6.5261,-6.5302,-6.5308,-6.5349,-6.5392,-6.5383,-6.5438,-6.546,-6.5508,-6.5523,-6.5565,-6.5539,-6.5562,-6.5566,-6.5571,-6.5576,-6.5414,-6.5572,-6.5572,-6.5572,-6.5571,-6.5571,0,-6.5255,-6.5269,-6.5312,-6.5353,-6.5389,-6.5363,-6.5393,-6.5424,-6.5474,-6.5498,-6.5533,-6.5589,-6.5633,-6.564,-6.5681,-6.5713,-6.5701,-6.5723,-6.5718,-6.572,-6.5599,-6.558,-6.5732,-6.5732,-6.5732,-6.5732,-6.5732,-6.5732,-6.534,-6.5411,-6.5411,-6.5491,-6.5504,-6.5558,-6.5577,-6.5601,-6.562,-6.5684,-6.572,-6.5726,-6.5743,-6.5785,-6.5823,-6.5824,-6.5838,-6.5865,-6.586,-6.5746,-6.5729,-6.5714,-6.5695,-6.5869,-6.5869,-6.5977,-6.5978,-6.5979]},{"header":{"parameterUnit":"m.s-1","parameterCategory":1,"la1":30.2991,"la2":30.254,"lo1":-89.0895,"lo2":-89.0444,"dy":0.0017,"dx":0.0017,"nx":28,"ny":28,"refTime":"2024-05-13T03:00:00:Z","depth":0,"parameterNumber":3,"parameterNumberName":"V-component_of_WINDS"},"data":[0,0,0,0,0,0,0,0,0,0,0,0,0,0,0,0,0,0,0,0,0,0,0,0,0,0,0,0,0,0,0,0,0,0,0,0,0,0,0,0,0,0,0,0,0,0,0,0,0,0,0,0,0,0,0,0,0,0,4.322,4.322,0,4.326,4.3261,4.3261,4.3175,4.3172,4.3169,4.3167,4.3206,4.321,4.3213,0,0,0,0,0,0,0,0,0,0,0,0,0,4.3067,4.307,4.322,4.322,4.3221,4.326,4.3261,4.3261,4.3175,4.3172,4.3168,4.3165,4.3205,4.3209,4.3214,0,0,0,0,0,0,0,0,0,0,0,0,0,4.3123,4.3071,4.322,4.3183,4.318,4.326,4.3261,4.3262,4.3176,4.3172,4.3168,4.3164,4.3204,4.3209,4.3214,4.3332,0,0,4.3231,4.3234,0,0,0,0,0,0,0,0,4.312,4.3129,4.3188,4.3185,4.3182,4.3208,4.3221,4.3285,4.3177,4.3177,4.3166,4.3162,4.321,4.3215,4.3232,4.3334,4.3336,4.3232,4.3235,4.3237,4.3239,0,0,0,0,0,0,0,4.3116,4.3127,4.3236,4.3189,4.3185,4.3164,4.3167,4.3233,4.3217,4.3177,4.3171,4.3177,4.3208,4.3227,4.3232,4.3336,4.3232,4.3236,4.324,4.3242,4.3537,4.3542,0,0,0,0,0,0,4.3117,4.3124,4.3234,4.3237,4.314,4.317,4.3174,4.3204,4.3216,4.3214,4.318,4.3173,4.3219,4.3226,4.3233,4.3371,4.3237,4.3242,4.3246,4.3533,4.3538,4.3543,0,0,0,0,0,0,4.3114,4.3128,4.3233,4.3179,4.3191,4.3177,4.3212,4.3207,4.3226,4.3218,4.3215,4.3203,4.3216,4.3225,4.3308,4.3371,4.3245,4.325,4.3527,4.3534,4.3541,4.3648,0,0,0,0,0,0,4.311,4.3127,4.3172,4.3181,4.3194,4.3308,4.3216,4.3211,4.3236,4.3226,4.3238,4.3236,4.3214,4.3301,4.3314,4.3376,4.3254,4.3522,4.3531,4.3539,4.3639,4.3658,4.3674,0,0,0,0,0,4.3105,4.32,4.3175,4.3189,4.3249,4.3312,4.3319,4.3292,4.3241,4.3286,4.3281,4.3236,4.3363,4.331,4.3324,4.3389,4.3518,4.3528,4.3538,4.3631,4.3654,4.3674,0,0,0,0,0,0,4.3199,4.3201,4.3172,4.3273,4.3293,4.3297,4.3352,4.3317,4.3351,4.3341,4.3305,4.3308,4.3398,4.3402,4.3343,4.3504,4.3431,4.3445,4.3497,4.3519,4.3537,4.3533,4.3259,0,0,0,0,0,4.3231,4.3282,4.3281,4.337,4.3382,4.3366,4.3392,4.3369,4.3388,4.3396,4.3397,4.3417,4.3461,4.3491,4.3531,4.364,4.3641,4.3692,4.371,4.3724,4.3736,4.3793,4.3815,4.3577,4.3577,4.3577,0,0,4.3299,4.3306,4.334,4.3389,4.3402,4.3455,4.3373,4.3433,4.3471,4.3405,4.3483,4.3485,4.3505,4.3601,4.3644,4.3607,4.3802,4.3737,4.3749,4.3752,4.3806,4.3828,4.3849,4.3584,4.3583,4.3581,0,0,4.3448,4.3459,4.3535,4.3549,4.357,4.3559,4.3578,4.3587,4.3586,4.3665,4.3616,4.3661,4.3738,4.3754,4.3772,4.393,4.3889,4.3945,4.4035,4.4092,4.4111,4.4127,4.4182,4.4202,4.3956,4.3957,4.3957,0,4.3528,4.3607,4.3578,4.3641,4.3664,4.3607,4.3683,4.3698,4.3731,4.3748,4.3707,4.3803,4.3812,4.3911,4.395,4.3967,4.3986,4.3942,4.411,4.4127,4.4141,4.4193,4.4214,4.3963,4.3962,4.3962,4.3961,0,4.3704,4.376,4.3818,4.3852,4.3882,4.3951,4.3932,4.3966,4.3941,4.3935,4.4015,4.4025,4.4066,4.4088,4.4065,4.4185,4.4161,4.4116,4.4042,4.4171,4.4219,4.4239,4.3972,4.397,4.3968,4.3966,0,0,4.3911,4.393,4.3951,4.3966,4.3986,4.4027,4.4095,4.4135,4.4165,4.419,4.4244,4.4312,4.4271,4.4292,4.427,4.432,4.4443,4.4268,4.4268,4.4299,4.4574,4.4607,4.463,4.4417,4.4421,4.4424,4.4572,0,4.4058,4.4173,4.415,4.4262,4.4313,4.4261,4.4319,4.4337,4.4334,4.4376,4.4371,4.4419,4.4362,4.4374,4.4421,4.4418,4.4497,4.4407,4.4466,4.4469,4.4461,4.4656,4.469,4.4829,4.4591,4.4594,4.4597,0,4.4244,4.4277,4.4395,4.4407,4.4427,4.448,4.4516,4.4557,4.4577,4.4571,4.4595,4.4564,4.463,4.4558,4.4648,4.4587,4.4611,4.4613,4.4618,4.462,4.4539,4.4662,4.4873,4.4894,4.4626,4.4624,4.4622,0,4.4381,4.4455,4.4535,4.455,4.4566,4.4604,4.4613,4.4629,4.4655,4.4687,4.4704,4.4743,4.4764,4.4795,4.4775,4.4724,4.4869,4.4794,4.4864,4.4865,4.4895,4.4893,4.5111,4.4914,4.4913,4.4913,4.4912,0,4.4546,4.462,4.4597,4.4646,4.4728,4.47,4.4782,4.4784,4.4799,4.4847,4.4805,4.4852,4.4824,4.4868,4.4853,4.4929,4.494,4.4936,4.493,4.4938,4.4939,4.4951,4.4941,4.4918,4.4917,4.4916,4.4915,0,4.4712,4.47,4.4783,4.4793,4.4797,4.4857,4.4864,4.491,4.4904,4.4966,4.4979,4.4969,4.5019,4.5003,4.5056,4.5046,4.5143,4.5127,4.5137,4.5132,4.5202,4.5195,4.5435,4.5464,4.5249,4.5251,4.5253,0,4.4817,4.4873,4.4889,4.4918,4.493,4.4979,4.5006,4.4982,4.5012,4.504,4.5082,4.5128,4.5164,4.5246,4.5243,4.5284,4.5267,4.5348,4.5272,4.5279,4.5266,4.5262,4.5268,4.5362,4.5365,4.5367,4.5369,0,4.5004,4.4996,4.5037,4.5077,4.511,4.514,4.5166,4.5193,4.517,4.5206,4.5257,4.5285,4.534,4.5386,4.5424,4.5432,4.5397,4.5393,4.5411,4.5418,4.5421,4.5419,4.5176,4.5387,4.5385,4.5384,4.5383,4.5382,4.5142,4.5189,4.5208,4.5255,4.5272,4.5298,4.5341,4.5341,4.5384,4.5427,4.541,4.5469,4.5488,4.5534,4.5548,4.5593,4.5562,4.5588,4.5594,4.5601,4.5609,4.5416,4.56,4.5599,4.5599,4.5598,4.5598,0,4.5326,4.5336,4.538,4.5418,4.5455,4.5421,4.5448,4.5481,4.5533,4.5554,4.5591,4.5649,4.5694,4.5696,4.5738,4.5774,4.5759,4.5786,4.5782,4.5784,4.5635,4.5615,4.5797,4.5797,4.5797,4.5797,4.5797,4.5797,4.5426,4.5504,4.5498,4.5584,4.5593,4.565,4.5669,4.5692,4.5709,4.5777,4.5814,4.5816,4.5829,4.5872,4.5912,4.5911,4.5928,4.5961,4.5954,4.5815,4.5795,4.5776,4.5756,4.5965,4.5965,4.6099,4.61,4.6101]}]]